2011 BV11
ephemeris date magn radius delta ra dec elong phase
Today4 Sep 202629.43.326 AU2.883 AU03h16m+25°44'107.3°16.8°
2011 BV11 - 2026-09-04
astro.vanbuitenen.nl


 
-1 year
-1 month
-1 day
Now
+1 day
+1 month
+1 year

The interactive orbit chart above shows the body's path through the solar system and its position at the given date. Green and blue lines are shown perpendicular to the ecliptic plane: Green if the path is above the ecliptic plane, blue if it is below. (Left-click and drag to rotate the view; Right-click and drag to move the view; Use scroll wheel to zoom in our out.)

The orbital elements of 2011 BV11 are:

            e (Eccentricity)                : 0.6704777
            a (Semimajor axis)              : 1.9913733
            i (Inclination)                 : 6.32383
            Ω (Longitude of ascending node) : 309.33500
            ω (Argument of perihelion)      : 267.73933
            M (Mean anomaly)                : 148.22446
            Epoch                           : 2026 Jun 09

            L (Longitude of perihelion)     : 37.06050
            B (Latitude of perihelion)      : -6.31889
            P (Orbital period in years)     : 2.81            
        

The light curve chart below shows the estimated development of the minor planet's magnitude.


The all-sky chart below shows the path of the minor planet over the same period as the light curve. The current position is marked yellow.





The following chart shows the path of the minor planet in the next few days. The field of view is optimized for (~10x50) binoculars and finderscopes.




Ephemerides:
Date       Time       RA (2000)    DEC (2000)    delta   radius  elong  phase   PA    magn
2026-09-04 00:00 UT   03 16 58.2   +25 44 02     2.883    3.326  107.3   16.8   253   29.4 
2026-09-04 17:13 UT   03 16 55.3   +25 45 31     2.873    3.326  108.0   16.8   252   29.4 
2026-09-05 00:00 UT   03 16 53.9   +25 46 06     2.869    3.326  108.3   16.7   252   29.4 
2026-09-06 00:00 UT   03 16 48.3   +25 48 06     2.855    3.327  109.3   16.6   252   29.3 
2026-09-07 00:00 UT   03 16 41.1   +25 50 00     2.840    3.327  110.3   16.5   252   29.3 
2026-09-08 00:00 UT   03 16 32.5   +25 51 50     2.826    3.327  111.2   16.4   252   29.3 
2026-09-09 00:00 UT   03 16 22.5   +25 53 35     2.812    3.327  112.2   16.3   252   29.3 
2026-09-10 00:00 UT   03 16 11.0   +25 55 15     2.798    3.326  113.2   16.2   252   29.3 
2026-09-11 00:00 UT   03 15 58.0   +25 56 50     2.784    3.326  114.2   16.0   251   29.3 
2026-09-12 00:00 UT   03 15 43.5   +25 58 19     2.770    3.326  115.2   15.9   251   29.3 
2026-09-13 00:00 UT   03 15 27.5   +25 59 43     2.757    3.326  116.2   15.7   251   29.2 
2026-09-14 00:00 UT   03 15 09.9   +26 01 01     2.743    3.326  117.3   15.6   251   29.2 
2026-09-15 00:00 UT   03 14 50.9   +26 02 13     2.729    3.326  118.3   15.4   250   29.2 
2026-09-16 00:00 UT   03 14 30.3   +26 03 20     2.716    3.326  119.3   15.3   250   29.2 
2026-09-17 00:00 UT   03 14 08.2   +26 04 21     2.703    3.326  120.3   15.1   250   29.2 
2026-09-18 00:00 UT   03 13 44.6   +26 05 15     2.690    3.326  121.4   15.0   250   29.2 
2026-09-19 00:00 UT   03 13 19.4   +26 06 04     2.677    3.325  122.4   14.8   249   29.1 
2026-09-20 00:00 UT   03 12 52.7   +26 06 46     2.664    3.325  123.5   14.6   249   29.1 
2026-09-21 00:00 UT   03 12 24.4   +26 07 22     2.651    3.325  124.5   14.4   249   29.1 
2026-09-22 00:00 UT   03 11 54.6   +26 07 51     2.638    3.325  125.6   14.2   249   29.1 
2026-09-23 00:00 UT   03 11 23.2   +26 08 13     2.626    3.324  126.7   14.0   248   29.1 
2026-09-24 00:00 UT   03 10 50.4   +26 08 28     2.614    3.324  127.8   13.8   248   29.1 
2026-09-25 00:00 UT   03 10 15.9   +26 08 37     2.602    3.324  128.8   13.6   248   29.0 
2026-09-26 00:00 UT   03 09 40.0   +26 08 38     2.590    3.324  129.9   13.4   247   29.0 
2026-09-27 00:00 UT   03 09 02.5   +26 08 32     2.578    3.323  131.0   13.2   247   29.0 
2026-09-28 00:00 UT   03 08 23.5   +26 08 18     2.567    3.323  132.1   12.9   247   29.0 
2026-09-29 00:00 UT   03 07 43.0   +26 07 57     2.555    3.322  133.2   12.7   246   29.0 
2026-09-30 00:00 UT   03 07 01.0   +26 07 28     2.544    3.322  134.3   12.5   246   28.9 
2026-10-01 00:00 UT   03 06 17.5   +26 06 52     2.533    3.322  135.4   12.2   245   28.9 
2026-10-02 00:00 UT   03 05 32.5   +26 06 07     2.522    3.321  136.6   12.0   245   28.9 
2026-10-03 00:00 UT   03 04 46.1   +26 05 14     2.512    3.321  137.7   11.7   245   28.9 
2026-10-04 00:00 UT   03 03 58.2   +26 04 13     2.501    3.320  138.8   11.4   244   28.9 


    Terminology:
            
    delta:  distance between minor planet and earth in AU
    radius: distance between minor planet and sun in AU
    magn:   magnitude (brightness) estimate    
    ra:     right ascension in hours (24h = 360deg)
    dec:    declination in degrees
    elong:  elongation in degrees (angle sun-earth-minor planet)    
    phase:  phase angle in degrees (angle sun-minor planet-earth)        
    AU:     Astronomical Unit (mean distance between earth and sun: 149597870.7 km
    

Orbital elements provided by the MPC (Minor Planet Center).
Calculations by a modified version of AAPlus, a C# implementation of the AA+ project by PJ Naughter from the algorithms presented in the book "Astronomical Algorithms" by Jean Meeus.
NGC2000 dso catalog and star labels from VizieR as provided by the Strasbourg astronomical Data Center.
Tycho2 catalog from the ESO archive.